Language: 


Des rapports , des résumés tant et plus, au choix de chacun....


Données statistiques de la station
Quotidien Rapport Octobre 5, 2017 Unités:  Anglais    Métrique   les deux
« Précédent Jour
Suivant Jour »
Quotidien Hebdomadaire Mensuel Annuel Actuel
  Haut: Bas: Moyen:
Température: 62.8 °F 32 °F 57.4 °F
Pt de rosée: 60.8 °F 44.6 °F 52.5 °F
Humidité: 98 % 0 % 83 %
Vitesse du vent: 24.4 mph 0 mph 8.9 mph
Rafales: 30.6 mph - -
Vent:- - West
Pression: 30.1 in 0 in -
Précipitation: 0.05 in    
Historical Graphs
 
 
Données statistiques pour Octobre 5, 2017
Heure Température Point de rosée Pression Vent Vitesse du vent Refales Humidité Pluie (taux horaire)
00:03 56.8 °F 51.8 °F 30.1 in WSW 4 mph 7.8 mph 84 % 0 in
00:08 56.8 °F 51.8 °F 30.1 in SW 5.8 mph 7.4 mph 84 % 0 in
00:13 56.8 °F 51.8 °F 30.1 in SSW 4.7 mph 7.2 mph 84 % 0 in
00:18 56.8 °F 53.6 °F 30.1 in WSW 6 mph 7.2 mph 85 % 0 in
00:23 56.8 °F 53.6 °F 30.1 in WSW 4.7 mph 6 mph 85 % 0 in
00:28 56.8 °F 53.6 °F 30.1 in SW 3.8 mph 7.6 mph 85 % 0 in
00:33 56.8 °F 53.6 °F 30.1 in WSW 8.5 mph 10.5 mph 85 % 0 in
00:38 57.2 °F 53.6 °F 30.1 in WSW 8.7 mph 12.8 mph 84 % 0 in
00:43 57.2 °F 53.6 °F 30.1 in SW 6.3 mph 14.8 mph 84 % 0 in
00:48 57.2 °F 53.6 °F 30 in WSW 8.5 mph 14.8 mph 84 % 0 in
00:53 57.2 °F 51.8 °F 30 in WSW 8.5 mph 13 mph 83 % 0 in
00:58 57.2 °F 51.8 °F 30 in WSW 13.2 mph 13.2 mph 83 % 0 in
01:03 57.2 °F 51.8 °F 30 in WSW 13.2 mph 15.4 mph 83 % 0 in
01:08 57.4 °F 51.8 °F 30 in West 13 mph 15.4 mph 83 % 0 in
01:13 57.4 °F 51.8 °F 30 in WSW 10.7 mph 13.9 mph 83 % 0 in
01:18 57.4 °F 51.8 °F 30 in WSW 9.8 mph 13 mph 83 % 0 in
01:23 57.4 °F 51.8 °F 30 in WSW 8.7 mph 14.5 mph 83 % 0 in
01:26 57.4 °F 51.8 °F 30 in SW 10.7 mph 14.5 mph 83 % 0 in
01:31 57.4 °F 51.8 °F 30 in West 7.2 mph 13.2 mph 83 % 0 in
01:33 57.2 °F 51.8 °F 30 in West 13.2 mph 14.1 mph 82 % 0 in
01:38 57.2 °F 51.8 °F 30 in West 7.4 mph 14.1 mph 82 % 0 in
01:43 57.2 °F 51.8 °F 30 in West 13 mph 16.8 mph 82 % 0 in
01:48 57.2 °F 51.8 °F 30 in SW 12.8 mph 19.5 mph 82 % 0 in
01:53 57.2 °F 51.8 °F 30 in WSW 11 mph 19.5 mph 82 % 0 in
01:54 57.2 °F 51.8 °F 30 in WSW 17 mph 19.5 mph 82 % 0 in
01:59 57.2 °F 51.8 °F 30 in WSW 12.8 mph 17.2 mph 82 % 0 in
02:04 57.2 °F 51.8 °F 30 in West 12.8 mph 17.2 mph 83 % 0 in
02:09 57.2 °F 51.8 °F 30 in WSW 17 mph 17.4 mph 83 % 0 in
02:15 57.2 °F 51.8 °F 30 in WSW 9.8 mph 17.4 mph 83 % 0 in
02:20 57.2 °F 51.8 °F 30 in SW 12.1 mph 15.4 mph 83 % 0 in
02:25 57.2 °F 51.8 °F 30 in WSW 14.1 mph 17.4 mph 83 % 0 in
02:30 57.2 °F 51.8 °F 30 in WSW 14.5 mph 17.4 mph 83 % 0 in
02:35 57.2 °F 53.6 °F 30 in WSW 12.8 mph 16.6 mph 84 % 0 in
02:40 57.2 °F 53.6 °F 30 in West 9.8 mph 16.3 mph 84 % 0 in
02:45 57.2 °F 53.6 °F 30 in WSW 14.8 mph 16.3 mph 84 % 0 in
02:46 57.2 °F 53.6 °F 30 in WSW 14.8 mph 16.3 mph 84 % 0 in
02:51 57.2 °F 53.6 °F 30 in WSW 12.5 mph 16.1 mph 84 % 0 in
02:56 57.2 °F 53.6 °F 30 in WSW 8.7 mph 16.1 mph 84 % 0 in
03:01 32 °F 53.6 °F 0 in Calm     0 % 0 in
03:06 57 °F 53.6 °F 30 in WSW 16.8 mph 16.8 mph 85 % 0 in
03:11 57 °F 53.6 °F 30 in South 9.8 mph 16.8 mph 85 % 0 in
03:16 57 °F 53.6 °F 30 in WSW 16.8 mph 16.8 mph 85 % 0 in
03:22 57 °F 53.6 °F 30 in WSW 14.5 mph 19.2 mph 85 % 0 in
03:27 57 °F 53.6 °F 30 in SSW 9.8 mph 19.2 mph 85 % 0 in
03:32 57 °F 53.6 °F 29.9 in WSW 13.2 mph 20.1 mph 85 % 0 in
03:37 57 °F 53.6 °F 29.9 in WSW 12.8 mph 20.1 mph 85 % 0 in
03:42 57 °F 53.6 °F 29.9 in WSW 12.5 mph 14.1 mph 85 % 0 in
03:47 56.7 °F 53.6 °F 29.9 in SW 8.1 mph 14.1 mph 87 % 0 in
03:52 56.5 °F 53.6 °F 29.9 in WSW 13.9 mph 14.1 mph 87 % 0 in
03:57 56.5 °F 53.6 °F 29.9 in WSW 19 mph 20.1 mph 87 % 0 in
03:58 56.5 °F 53.6 °F 29.9 in WSW 19 mph 20.1 mph 87 % 0 in
04:03 56.7 °F 53.6 °F 29.9 in SW 14.5 mph 20.1 mph 88 % 0 in
04:08 56.7 °F 53.6 °F 29.9 in WSW 15.2 mph 17.4 mph 88 % 0 in
04:13 56.8 °F 53.6 °F 29.9 in WSW 19.7 mph 19.7 mph 88 % 0 in
04:18 57 °F 53.6 °F 29.9 in WSW 16.1 mph 19.7 mph 88 % 0 in
04:23 57 °F 53.6 °F 29.9 in West 15.2 mph 21.3 mph 88 % 0 in
04:28 57 °F 53.6 °F 29.9 in WSW 12.1 mph 21.3 mph 88 % 0 in
04:33 57 °F 53.6 °F 29.9 in WSW 8.5 mph 17.9 mph 88 % 0 in
04:38 57 °F 53.6 °F 29.9 in WSW 12.5 mph 16.1 mph 88 % 0 in
04:43 57 °F 53.6 °F 29.9 in WSW 16.3 mph 19.5 mph 88 % 0 in
04:48 57 °F 53.6 °F 29.9 in SW 14.5 mph 23 mph 88 % 0 in
04:53 57 °F 53.6 °F 29.9 in WSW 13 mph 23 mph 88 % 0 in
04:58 57 °F 53.6 °F 29.9 in WSW 17.4 mph 20.8 mph 88 % 0 in
05:03 57 °F 53.6 °F 29.9 in WSW 19.5 mph 19.7 mph 88 % 0 in
05:08 57.2 °F 55.4 °F 29.9 in SSW 15.4 mph 21.5 mph 89 % 0 in
05:17 57.4 °F 55.4 °F 29.9 in WSW 17.7 mph 23.9 mph 89 % 0 in
05:22 57.4 °F 55.4 °F 29.9 in WSW 17.4 mph 23.9 mph 89 % 0 in
05:24 57.4 °F 55.4 °F 29.9 in WSW 15.9 mph 23.3 mph 89 % 0 in
05:26 57.4 °F 55.4 °F 29.9 in WSW 22.4 mph 23.3 mph 89 % 0 in
05:31 57.7 °F 55.4 °F 29.9 in West 16.3 mph 23.3 mph 90 % 0 in
05:36 57.7 °F 55.4 °F 29.9 in WSW 17.4 mph 22.6 mph 90 % 0 in
05:41 57.9 °F 55.4 °F 29.9 in WSW 12.3 mph 19.9 mph 90 % 0 in
05:46 57.9 °F 55.4 °F 29.9 in SW 17.4 mph 19.9 mph 90 % 0 in
05:51 58.1 °F 55.4 °F 29.9 in WSW 13.4 mph 17.4 mph 90 % 0 in
05:56 58.1 °F 55.4 °F 29.9 in West 17.7 mph 23.7 mph 90 % 0 in
06:06 58.3 °F 55.4 °F 29.9 in WSW 18.1 mph 22.8 mph 91 % 0 in
06:11 58.5 °F 55.4 °F 29.9 in West 11 mph 19.7 mph 91 % 0 in
06:16 58.5 °F 55.4 °F 29.9 in WSW 23.9 mph 23.9 mph 91 % 0 in
06:21 58.5 °F 55.4 °F 29.9 in WSW 17.7 mph 23.9 mph 91 % 0 in
06:26 58.5 °F 55.4 °F 29.9 in West 22.4 mph 26.2 mph 92 % 0 in
06:41 58.6 °F 55.4 °F 29.9 in WSW 21.9 mph 27.1 mph 92 % 0 in
06:46 58.6 °F 55.4 °F 29.9 in WSW 22.1 mph 27.1 mph 92 % 0 in
06:51 58.6 °F 55.4 °F 29.9 in WSW 17.4 mph 27.1 mph 92 % 0 in
06:57 58.6 °F 57.2 °F 29.9 in SW 22.8 mph 27.1 mph 93 % 0 in
07:02 58.6 °F 57.2 °F 29.9 in West 23.5 mph 25.5 mph 93 % 0 in
07:07 58.8 °F 57.2 °F 29.9 in WSW 19.5 mph 23.5 mph 93 % 0 in
07:12 58.8 °F 57.2 °F 29.9 in WSW 22.1 mph 23.5 mph 93 % 0 in
07:17 58.8 °F 57.2 °F 29.9 in WSW 19.7 mph 23 mph 93 % 0 in
07:22 58.8 °F 57.2 °F 29.9 in WSW 16.1 mph 21.3 mph 93 % 0 in
07:27 58.8 °F 57.2 °F 29.9 in West 18.1 mph 30.6 mph 93 % 0 in
07:32 58.8 °F 57.2 °F 29.9 in WSW 17.4 mph 30.6 mph 93 % 0 in
07:37 58.8 °F 57.2 °F 29.9 in WSW 17.7 mph 22.4 mph 93 % 0 in
07:42 58.8 °F 57.2 °F 29.9 in West 22.1 mph 22.4 mph 93 % 0 in
07:47 58.8 °F 57.2 °F 29.9 in SW 11.2 mph 22.4 mph 93 % 0 in
07:52 58.8 °F 57.2 °F 29.9 in WSW 20.1 mph 22.4 mph 94 % 0 in
08:02 58.8 °F 57.2 °F 29.9 in WSW 19.2 mph 20.1 mph 94 % 0 in
08:07 58.8 °F 57.2 °F 29.9 in WSW 12.1 mph 19.7 mph 94 % 0 in
08:12 58.8 °F 57.2 °F 29.9 in WSW 22.8 mph 22.8 mph 95 % 0 in
08:18 58.8 °F 57.2 °F 29.9 in WSW 17.7 mph 22.8 mph 95 % 0 in
08:23 58.8 °F 57.2 °F 29.9 in SW 15.7 mph 22.8 mph 95 % 0 in
08:28 58.8 °F 59 °F 29.9 in WSW 20.4 mph 22.8 mph 96 % 0 in
08:33 59 °F 59 °F 29.9 in WSW 20.6 mph 23.3 mph 96 % 0 in
08:38 59 °F 59 °F 29.9 in West 24.4 mph 24.4 mph 96 % 0 in
08:43 59.2 °F 59 °F 29.9 in WSW 20.4 mph 24.4 mph 96 % 0 in
08:48 59.2 °F 59 °F 29.9 in WSW 19.9 mph 28.4 mph 96 % 0 in
08:53 59.2 °F 59 °F 29.9 in WSW 12.3 mph 28.4 mph 96 % 0 in
08:58 59 °F 59 °F 29.9 in West 19.7 mph 19.9 mph 97 % 0 in
09:03 59 °F 59 °F 29.9 in West 19.7 mph 19.7 mph 97 % 0 in
09:08 58.8 °F 59 °F 29.9 in West 19.7 mph 19.7 mph 98 % 0 in
09:13 58.8 °F 59 °F 29.9 in West 19.7 mph 19.7 mph 98 % 0 in
09:18 58.8 °F 59 °F 29.9 in West 19.7 mph 19.7 mph 98 % 0 in
09:23 58.8 °F 59 °F 29.9 in WSW 13 mph 13 mph 98 % 0 in
09:28 59 °F 59 °F 29.9 in WSW 13 mph 13 mph 98 % 0 in
09:33 59 °F 59 °F 29.9 in WSW 13 mph 13 mph 98 % 0 in
09:34 59 °F 59 °F 29.9 in WSW 13 mph 13 mph 98 % 0 in
09:39 59 °F 59 °F 29.9 in WSW 13 mph 13 mph 98 % 0 in
09:40 59 °F 59 °F 29.9 in WSW 13 mph 13 mph 98 % 0 in
09:45 59 °F 59 °F 29.9 in West 10.5 mph 13 mph 98 % 0 in
09:50 59 °F 59 °F 29.9 in West 10.5 mph 13 mph 98 % 0 in
09:55 59.4 °F 59 °F 29.9 in West 10.5 mph 10.5 mph 98 % 0 in
10:00 59.5 °F 59 °F 29.9 in West 10.5 mph 10.5 mph 98 % 0.01 in
10:05 59.7 °F 59 °F 29.9 in West 10.5 mph 10.5 mph 98 % 0.01 in
10:10 59.9 °F 60.8 °F 29.9 in West 10.5 mph 10.5 mph 98 % 0.01 in
10:16 59.9 °F 60.8 °F 29.9 in West 10.5 mph 10.5 mph 98 % 0.01 in
10:21 60.3 °F 60.8 °F 29.9 in WSW 10.1 mph 10.1 mph 98 % 0.01 in
10:26 60.3 °F 60.8 °F 29.9 in WSW 10.1 mph 10.1 mph 98 % 0.01 in
10:31 60.3 °F 60.8 °F 29.9 in West 10.1 mph 10.1 mph 98 % 0.01 in
10:36 60.3 °F 60.8 °F 29.9 in West 9.8 mph 10.1 mph 98 % 0.01 in
10:41 60.4 °F 60.8 °F 29.9 in West 15.2 mph 15.2 mph 98 % 0.01 in
10:46 60.6 °F 60.8 °F 29.9 in West 14.3 mph 15.2 mph 98 % 0.01 in
10:51 60.6 °F 60.8 °F 29.9 in West 15.2 mph 15.2 mph 98 % 0.01 in
10:56 60.8 °F 60.8 °F 29.9 in West 7.6 mph 15.2 mph 98 % 0 in
11:01 61 °F 60.8 °F 29.9 in WSW 8.9 mph 17 mph 97 % 0 in
11:06 61 °F 60.8 °F 29.9 in West 15.4 mph 17 mph 97 % 0 in
11:11 61.3 °F 60.8 °F 29.9 in West 6 mph 21.9 mph 97 % 0 in
11:16 61.3 °F 60.8 °F 29.9 in West 6 mph 21.9 mph 97 % 0 in
11:21 61.3 °F 60.8 °F 29.9 in West 6 mph 9.6 mph 96 % 0 in
11:26 61.3 °F 60.8 °F 29.9 in WSW 13 mph 13 mph 96 % 0 in
11:31 61.5 °F 60.8 °F 29.9 in WSW 9.4 mph 13 mph 96 % 0 in
11:36 61.5 °F 60.8 °F 29.9 in WSW 9.4 mph 13 mph 96 % 0 in
11:41 61.3 °F 60.8 °F 29.9 in WSW 9.4 mph 9.4 mph 95 % 0 in
11:51 61.2 °F 60.8 °F 29.9 in WSW 9.4 mph 9.4 mph 95 % 0.02 in
11:56 60.4 °F 59 °F 29.9 in WSW 9.4 mph 9.4 mph 94 % 0.03 in
12:01 60.4 °F 59 °F 29.9 in WSW 9.4 mph 9.4 mph 94 % 0.03 in
12:06 59.9 °F 59 °F 29.9 in WSW 9.4 mph 9.4 mph 94 % 0.03 in
12:11 59.9 °F 59 °F 29.9 in WNW 7.4 mph 8.7 mph 94 % 0.03 in
12:21 59.5 °F 57.2 °F 29.9 in NW 7.6 mph 8.7 mph 94 % 0.03 in
12:26 58.5 °F 57.2 °F 29.9 in NW 7.6 mph 7.6 mph 94 % 0.03 in
12:31 58.5 °F 57.2 °F 29.9 in NW 7.6 mph 7.6 mph 95 % 0.03 in
12:36 58.5 °F 57.2 °F 29.9 in NW 7.6 mph 7.6 mph 95 % 0.03 in
12:41 58.5 °F 57.2 °F 29.9 in NW 7.6 mph 7.6 mph 95 % 0.03 in
12:52 58.8 °F 59 °F 29.9 in NNW 7.2 mph 7.2 mph 96 % 0.01 in
12:57 58.8 °F 59 °F 29.9 in NNW 7.2 mph 7.2 mph 96 % 0 in
13:07 59.9 °F 57.2 °F 29.9 in NNW 4.3 mph 4.3 mph 90 % 0 in
13:17 60.6 °F 55.4 °F 30 in North 3.8 mph 4.3 mph 83 % 0 in
13:22 61.7 °F 57.2 °F 30 in North 5.8 mph 5.8 mph 82 % 0 in
13:27 61.7 °F 57.2 °F 30 in North 5.8 mph 5.8 mph 82 % 0 in
13:32 61.7 °F 57.2 °F 30 in WNW 5.6 mph 5.8 mph 82 % 0 in
13:37 60.3 °F 51.8 °F 30 in WNW 5.6 mph 5.6 mph 72 % 0 in
13:42 60.3 °F 51.8 °F 30 in WNW 5.6 mph 5.6 mph 72 % 0 in
13:47 61 °F 51.8 °F 30 in WNW 5.6 mph 5.6 mph 72 % 0 in
13:53 61 °F 51.8 °F 30 in WNW 5.6 mph 5.6 mph 72 % 0 in
13:58 61.5 °F 51.8 °F 30 in North 5.4 mph 5.4 mph 69 % 0 in
14:03 61.5 °F 51.8 °F 30 in North 5.4 mph 5.4 mph 69 % 0 in
14:08 61.5 °F 51.8 °F 30 in NNW 6 mph 6 mph 69 % 0 in
14:13 61.5 °F 51.8 °F 30 in NNW 6 mph 6 mph 69 % 0 in
14:18 61.5 °F 51.8 °F 30 in North 5.6 mph 5.6 mph 69 % 0 in
14:23 61.5 °F 50 °F 30 in NNE 11 mph 11 mph 66 % 0 in
14:28 61.5 °F 50 °F 30 in WNW 3.4 mph 11 mph 66 % 0 in
14:33 61.5 °F 50 °F 30 in NNW 7.4 mph 11 mph 66 % 0 in
14:38 61.5 °F 50 °F 30 in WNW 7.4 mph 10.5 mph 66 % 0 in
14:45 62.2 °F 50 °F 30 in North 6.5 mph 10.5 mph 65 % 0 in
14:49 62.4 °F 50 °F 30 in NNE 9.6 mph 9.8 mph 64 % 0 in
14:54 62.4 °F 50 °F 30 in NNW 6 mph 10.3 mph 64 % 0 in
14:59 62.4 °F 50 °F 30 in WNW 9.8 mph 10.3 mph 64 % 0 in
15:09 61.9 °F 50 °F 30 in North 6.3 mph 9.6 mph 63 % 0 in
15:14 61.9 °F 50 °F 30 in North 4.7 mph 9.6 mph 63 % 0 in
15:19 61.9 °F 50 °F 30 in North 5.8 mph 6.3 mph 63 % 0 in
15:24 61.9 °F 50 °F 30 in NNW 6.3 mph 6.3 mph 63 % 0 in
15:35 61.7 °F 48.2 °F 30 in North 3.4 mph 8.1 mph 61 % 0 in
15:40 61.7 °F 48.2 °F 30 in WNW 8.7 mph 8.7 mph 61 % 0 in
15:45 61.7 °F 48.2 °F 30 in NNW 10.1 mph 10.1 mph 59 % 0 in
15:50 62.8 °F 48.2 °F 30 in North 3.1 mph 10.1 mph 60 % 0 in
15:55 61.7 °F 48.2 °F 30 in NNW 5.6 mph 7.8 mph 61 % 0 in
16:00 62.1 °F 50 °F 30 in NW 4 mph 7.8 mph 63 % 0 in
16:05 62.1 °F 50 °F 30 in NW 5.4 mph 5.4 mph 63 % 0 in
16:10 59.9 °F 46.4 °F 30 in NNW 6.7 mph 6.7 mph 60 % 0 in
16:15 59.9 °F 46.4 °F 30 in North 2.7 mph 6.7 mph 60 % 0 in
16:20 59.9 °F 46.4 °F 30 in North 4 mph 4.3 mph 60 % 0 in
16:25 59.5 °F 48.2 °F 30 in WNW 4.3 mph 6.3 mph 64 % 0 in
16:30 59.5 °F 48.2 °F 30 in WSW 3.4 mph 7.6 mph 64 % 0 in
16:41 59 °F 46.4 °F 30 in NNE 6.3 mph 7.6 mph 63 % 0 in
16:46 59 °F 46.4 °F 30 in North 1.1 mph 7.6 mph 63 % 0 in
16:51 59.4 °F 46.4 °F 30 in North 4.9 mph 6.9 mph 62 % 0 in
16:56 59.7 °F 46.4 °F 30 in NW 2 mph 6.9 mph 62 % 0 in
17:01 59.7 °F 46.4 °F 30 in NW 5.6 mph 6.3 mph 62 % 0 in
17:11 60.4 °F 48.2 °F 30 in NNW 3.8 mph 7.6 mph 64 % 0 in
17:16 60.4 °F 48.2 °F 30 in WNW 3.6 mph 7.6 mph 63 % 0 in
17:21 60.4 °F 48.2 °F 30 in NNW 1.3 mph 6.5 mph 63 % 0 in
17:31 61 °F 48.2 °F 30 in NNE 6.5 mph 8.9 mph 62 % 0 in
17:36 61 °F 48.2 °F 30 in NNW 3.1 mph 6.5 mph 62 % 0 in
17:41 61 °F 48.2 °F 30 in NNW 7.2 mph 7.2 mph 62 % 0 in
17:46 61 °F 48.2 °F 30 in North 2.9 mph 7.2 mph 62 % 0 in
17:48 61 °F 48.2 °F 30 in NNW 2.7 mph 7.2 mph 62 % 0 in
17:53 60.8 °F 46.4 °F 30 in NNE 4 mph 6 mph 59 % 0 in
17:58 59.5 °F 46.4 °F 30 in WNW 2 mph 6 mph 60 % 0 in
18:03 59.5 °F 46.4 °F 30 in NNW 2.9 mph 5.6 mph 60 % 0 in
18:08 59.5 °F 46.4 °F 30 in West 1.3 mph 5.6 mph 60 % 0 in
18:13 59.5 °F 46.4 °F 30 in NW 5.6 mph 5.6 mph 60 % 0 in
18:18 59.5 °F 46.4 °F 30 in Calm   5.6 mph 60 % 0 in
18:23 58.3 °F 46.4 °F 30 in Calm   1.3 mph 64 % 0 in
18:28 58.3 °F 46.4 °F 30 in WNW 1.6 mph 2.2 mph 64 % 0 in
18:33 58.1 °F 48.2 °F 30.1 in NW 3.4 mph 3.4 mph 65 % 0 in
18:38 58.1 °F 48.2 °F 30.1 in Calm   3.4 mph 65 % 0 in
18:43 58.1 °F 48.2 °F 30.1 in Calm   3.4 mph 65 % 0 in
18:48 58.1 °F 48.2 °F 30.1 in West 1.1 mph 1.3 mph 65 % 0 in
18:53 58.1 °F 48.2 °F 30.1 in Calm   2.7 mph 65 % 0 in
18:58 58.1 °F 48.2 °F 30.1 in North 2.7 mph 2.7 mph 65 % 0 in
19:03 58.1 °F 48.2 °F 30.1 in Calm   2.7 mph 65 % 0 in
19:08 58.1 °F 48.2 °F 30.1 in Calm     65 % 0 in
19:13 58.1 °F 48.2 °F 30.1 in Calm     65 % 0 in
19:18 58.1 °F 48.2 °F 30.1 in Calm     65 % 0 in
19:28 53.4 °F 46.4 °F 30.1 in Calm     74 % 0 in
19:33 53.4 °F 46.4 °F 30.1 in Calm     74 % 0 in
19:38 53.4 °F 46.4 °F 30.1 in Calm     74 % 0 in
19:43 53.4 °F 46.4 °F 30.1 in Calm     74 % 0 in
19:48 53.4 °F 46.4 °F 30.1 in Calm     74 % 0 in
19:58 53.4 °F 46.4 °F 30.1 in Calm   1.1 mph 74 % 0 in
20:03 53.4 °F 46.4 °F 30.1 in Calm   1.1 mph 74 % 0 in
20:08 53.4 °F 46.4 °F 30.1 in Calm     74 % 0 in
20:13 53.4 °F 46.4 °F 30.1 in Calm   2.9 mph 74 % 0 in
20:18 49.8 °F 44.6 °F 30.1 in Calm   2.9 mph 81 % 0 in
20:23 49.8 °F 44.6 °F 30.1 in West 2.5 mph 3.4 mph 81 % 0 in
20:28 49.8 °F 44.6 °F 30.1 in Calm   3.4 mph 81 % 0 in
20:33 49.8 °F 44.6 °F 30.1 in Calm   3.4 mph 81 % 0 in
20:38 49.8 °F 44.6 °F 30.1 in Calm   3.4 mph 81 % 0 in
20:44 49.6 °F 44.6 °F 30.1 in Calm   4 mph 84 % 0 in
20:49 49.8 °F 46.4 °F 30.1 in Calm   4.3 mph 84 % 0 in
20:54 50 °F 46.4 °F 30.1 in Calm   4.3 mph 84 % 0 in
20:59 50 °F 46.4 °F 30.1 in Calm     84 % 0 in
21:04 50 °F 46.4 °F 30.1 in Calm   4 mph 85 % 0 in
21:09 50 °F 46.4 °F 30.1 in Calm   4 mph 85 % 0 in
21:14 50 °F 46.4 °F 30.1 in Calm     85 % 0 in
21:22 50 °F 46.4 °F 30.1 in Calm     85 % 0 in
21:27 49.8 °F 46.4 °F 30.1 in WSW 2.5 mph 3.8 mph 86 % 0 in
21:32 49.8 °F 46.4 °F 30.1 in Calm   3.8 mph 86 % 0 in
21:37 49.8 °F 46.4 °F 30.1 in WSW 4 mph 4 mph 86 % 0 in
21:42 49.8 °F 46.4 °F 30.1 in WSW 4 mph 5.4 mph 86 % 0 in
21:47 49.8 °F 46.4 °F 30.1 in West 5.4 mph 5.6 mph 86 % 0 in
21:52 49.8 °F 46.4 °F 30.1 in WSW 3.1 mph 6.5 mph 86 % 0 in
21:57 51.1 °F 48.2 °F 30.1 in West 4.9 mph 6.5 mph 90 % 0 in
22:02 51.4 °F 48.2 °F 30.1 in West 6.3 mph 6.3 mph 90 % 0 in
22:07 51.6 °F 48.2 °F 30.1 in WSW 5.4 mph 6.3 mph 90 % 0 in
22:17 51.6 °F 48.2 °F 30.1 in WSW 7.8 mph 7.8 mph 90 % 0 in
22:22 51.6 °F 48.2 °F 30.1 in West 2.9 mph 7.8 mph 90 % 0 in
22:27 52.3 °F 48.2 °F 30.1 in WNW 6 mph 6.5 mph 88 % 0 in
22:32 52.3 °F 48.2 °F 30.1 in West 5.4 mph 6 mph 88 % 0 in
22:37 52.2 °F 48.2 °F 30.1 in Calm   6 mph 87 % 0 in
22:42 52.2 °F 48.2 °F 30.1 in Calm   5.4 mph 87 % 0 in
22:47 52.2 °F 48.2 °F 30.1 in Calm     87 % 0 in
22:57 50.4 °F 46.4 °F 30.1 in West 2.7 mph 2.7 mph 86 % 0 in
23:02 50.4 °F 46.4 °F 30.1 in Calm   3.1 mph 86 % 0 in
23:07 49.6 °F 46.4 °F 30.1 in Calm   3.1 mph 87 % 0 in
23:12 48.7 °F 46.4 °F 30.1 in Calm     87 % 0 in
23:17 48.7 °F 46.4 °F 30.1 in Calm     87 % 0 in
23:22 48.6 °F 46.4 °F 30.1 in WSW 2 mph 2 mph 88 % 0 in
23:27 48.6 °F 46.4 °F 30.1 in Calm   2 mph 90 % 0 in
23:32 48.6 °F 46.4 °F 30.1 in Calm     90 % 0 in
23:37 48.6 °F 46.4 °F 30.1 in West 1.3 mph 1.3 mph 90 % 0 in
23:42 48.6 °F 46.4 °F 30.1 in WNW 4.5 mph 4.5 mph 91 % 0 in
23:47 48.7 °F 46.4 °F 30.1 in WNW 1.6 mph 7.6 mph 92 % 0 in
23:52 48.7 °F 46.4 °F 30.1 in WNW 6 mph 7.6 mph 92 % 0 in
23:57 48.7 °F 46.4 °F 30.1 in Calm   6 mph 92 % 0 in
Le Gheer Warneton
Courtoisie de Weather Underground - 2.25 mb

Mise a jour : 16-12-17 12:09:11
Généré par Cumulus 1.9.4 (1099)